TAM92 SBBR-SLVR

Flight info

Callsign TAM92
Flight time N/A
Altitude 38000
Route UTGOG1B KOGDI DCT SINIP DCT ANGAS DCT GAVOS UM411 VIR DCT
Aircraft B77W/H-SDE1E2E3FGHIJ2J3J4J5M1RWXY/LB1D1

Departure

Time 2026-05-04 15:54
Airport Presidente Juscelino Kubitschek International Airport (SBBR)

Arrival

Time N/A
Airport Viru Viru International Airport (SLVR)
Time Latitude Longitude Altitude Speed Heading
2026-05-04 15:41 -15.86750 -47.91745 3491 ft 0 kts 266°
2026-05-04 15:46 -15.86747 -47.91730 3493 ft 2 kts 242°
2026-05-04 15:46 -15.86738 -47.91718 3493 ft 2 kts 217°
2026-05-04 15:46 -15.86725 -47.91710 3493 ft 2 kts 195°
2026-05-04 15:46 -15.86711 -47.91709 3492 ft 0 kts 175°
2026-05-04 15:47 -15.86698 -47.91710 3492 ft 2 kts 174°
2026-05-04 15:47 -15.86688 -47.91711 3491 ft 0 kts 176°
2026-05-04 15:47 -15.86686 -47.91711 3490 ft 0 kts 176°
2026-05-04 15:49 -15.86694 -47.91711 3490 ft 6 kts 176°
2026-05-04 15:49 -15.86793 -47.91704 3492 ft 21 kts 176°
2026-05-04 15:49 -15.86992 -47.91690 3493 ft 31 kts 178°
2026-05-04 15:50 -15.87200 -47.91675 3489 ft 29 kts 176°
2026-05-04 15:50 -15.87385 -47.91663 3485 ft 25 kts 176°
2026-05-04 15:50 -15.87571 -47.91649 3475 ft 28 kts 176°
2026-05-04 15:50 -15.87699 -47.91643 3465 ft 4 kts 197°
2026-05-04 15:51 -15.87745 -47.91689 3464 ft 14 kts 255°
2026-05-04 15:51 -15.87753 -47.91827 3468 ft 23 kts 269°
2026-05-04 15:51 -15.87762 -47.92032 3471 ft 33 kts 268°
2026-05-04 15:51 -15.87771 -47.92302 3480 ft 40 kts 268°
2026-05-04 15:52 -15.87804 -47.92600 3489 ft 44 kts 266°
2026-05-04 15:52 -15.87814 -47.92942 3503 ft 50 kts 265°
2026-05-04 15:52 -15.87839 -47.93317 3518 ft 55 kts 266°
2026-05-04 15:52 -15.87868 -47.93724 3529 ft 52 kts 266°
2026-05-04 15:53 -15.87882 -47.93954 3532 ft 17 kts 251°
2026-05-04 15:53 -15.87981 -47.93984 3532 ft 15 kts 166°
2026-05-04 15:53 -15.88060 -47.93959 3531 ft 4 kts 122°
2026-05-04 15:53 -15.88063 -47.93922 3531 ft 7 kts 85°
2026-05-04 15:54 -15.88036 -47.93674 3526 ft 76 kts 86°
2026-05-04 15:54 -15.87991 -47.92812 3490 ft 162 kts 86°
2026-05-04 15:54 -15.87869 -47.91427 3680 ft 217 kts 87°
2026-05-04 15:54 -15.87791 -47.89892 5006 ft 212 kts 86°
2026-05-04 15:55 -15.87714 -47.88508 6173 ft 199 kts 85°
2026-05-04 15:55 -15.87617 -47.87006 6650 ft 220 kts 84°
2026-05-04 15:55 -15.87508 -47.85341 7213 ft 240 kts 84°
2026-05-04 15:55 -15.87393 -47.83568 7800 ft 259 kts 84°
2026-05-04 15:56 -15.87268 -47.81640 8470 ft 275 kts 84°
2026-05-04 15:56 -15.87142 -47.79682 9427 ft 279 kts 84°
2026-05-04 15:56 -15.86776 -47.77689 10045 ft 284 kts 66°
2026-05-04 15:56 -15.85700 -47.75970 10210 ft 284 kts 44°
2026-05-04 15:57 -15.84065 -47.74876 10220 ft 283 kts 20°
2026-05-04 15:57 -15.82114 -47.74589 10228 ft 284 kts 356°
2026-05-04 15:57 -15.80196 -47.75162 10239 ft 288 kts 337°
2026-05-04 15:57 -15.78323 -47.76095 10254 ft 320 kts 336°
2026-05-04 15:58 -15.76148 -47.77135 10251 ft 360 kts 337°
2026-05-04 15:58 -15.73850 -47.78377 10239 ft 378 kts 328°
2026-05-04 15:58 -15.71797 -47.80062 10235 ft 381 kts 317°
2026-05-04 15:58 -15.70082 -47.82158 10236 ft 383 kts 306°
2026-05-04 15:59 -15.68786 -47.84636 10454 ft 402 kts 293°
2026-05-04 15:59 -15.68054 -47.87445 11594 ft 403 kts 279°
2026-05-04 15:59 -15.67833 -47.90278 12774 ft 400 kts 273°
2026-05-04 15:59 -15.67754 -47.93167 13615 ft 407 kts 271°
2026-05-04 16:00 -15.67706 -47.96120 14389 ft 415 kts 271°
2026-05-04 16:00 -15.67671 -47.99121 15315 ft 418 kts 271°
2026-05-04 16:00 -15.67646 -48.02121 16292 ft 419 kts 271°
2026-05-04 16:00 -15.67625 -48.05113 17198 ft 421 kts 270°
2026-05-04 16:01 -15.67607 -48.08151 18056 ft 425 kts 270°
2026-05-04 16:01 -15.67591 -48.11237 18817 ft 431 kts 270°
2026-05-04 16:01 -15.67577 -48.14333 19550 ft 437 kts 270°
2026-05-04 16:01 -15.67563 -48.17519 20340 ft 441 kts 269°
2026-05-04 16:02 -15.67551 -48.20672 21115 ft 445 kts 270°
2026-05-04 16:02 -15.67541 -48.23893 21876 ft 449 kts 269°
2026-05-04 16:02 -15.67521 -48.30448 23371 ft 458 kts 269°
2026-05-04 16:03 -15.67510 -48.33700 24182 ft 459 kts 269°
2026-05-04 16:03 -15.67499 -48.37014 24935 ft 462 kts 269°
2026-05-04 16:03 -15.67487 -48.40340 25637 ft 466 kts 269°
2026-05-04 16:03 -15.67472 -48.43746 26328 ft 470 kts 269°
2026-05-04 16:04 -15.67453 -48.47128 27015 ft 474 kts 269°
2026-05-04 16:04 -15.67413 -48.53971 28400 ft 480 kts 269°
2026-05-04 16:04 -15.67392 -48.57434 29063 ft 483 kts 269°
2026-05-04 16:05 -15.67370 -48.60923 29760 ft 485 kts 269°
2026-05-04 16:05 -15.67348 -48.64368 30629 ft 482 kts 268°
2026-05-04 16:05 -15.67301 -48.71189 32870 ft 464 kts 268°
2026-05-04 16:06 -15.67279 -48.74464 33943 ft 457 kts 268°
2026-05-04 16:06 -15.67218 -48.83145 36155 ft 449 kts 268°
2026-05-04 16:07 -15.67187 -48.87439 37061 ft 446 kts 268°
2026-05-04 16:07 -15.67530 -48.97125 38160 ft 444 kts 259°
2026-05-04 16:08 -15.68091 -49.00362 38157 ft 441 kts 258°
2026-05-04 16:09 -15.70847 -49.16081 38138 ft 438 kts 258°
2026-05-04 16:10 -15.73012 -49.28581 38135 ft 439 kts 258°
2026-05-04 16:11 -15.75178 -49.41144 38134 ft 441 kts 258°
2026-05-04 16:12 -15.78399 -49.59924 38127 ft 440 kts 258°
2026-05-04 16:13 -15.80535 -49.72432 38139 ft 440 kts 259°
2026-05-04 16:14 -15.82671 -49.84991 38132 ft 440 kts 258°
2026-05-04 16:16 -15.85327 -50.00666 38121 ft 440 kts 258°
2026-05-04 16:17 -15.87958 -50.16260 38100 ft 438 kts 258°
2026-05-04 16:18 -15.90061 -50.28775 38073 ft 441 kts 258°
2026-05-04 16:19 -15.91666 -50.38357 38062 ft 455 kts 258°
2026-05-04 16:19 -15.92743 -50.44805 38063 ft 452 kts 259°
2026-05-04 16:20 -15.95428 -50.60928 38050 ft 452 kts 258°
2026-05-04 16:22 -15.98091 -50.77001 38065 ft 451 kts 259°
2026-05-04 16:23 -16.01272 -50.96292 38082 ft 452 kts 259°
2026-05-04 16:25 -16.04428 -51.15544 38056 ft 452 kts 259°
2026-05-04 16:26 -16.08109 -51.38141 38047 ft 452 kts 258°
2026-05-04 16:28 -16.10721 -51.54271 38050 ft 452 kts 258°
2026-05-04 16:29 -16.14362 -51.76886 38056 ft 455 kts 259°
2026-05-04 16:31 -16.16944 -51.93021 38054 ft 453 kts 259°
2026-05-04 16:32 -16.20035 -52.12437 38035 ft 453 kts 259°
2026-05-04 16:33 -16.22077 -52.25335 38040 ft 452 kts 259°
2026-05-04 16:34 -16.23603 -52.35001 38042 ft 453 kts 259°
2026-05-04 16:35 -16.26645 -52.54366 38035 ft 452 kts 259°
2026-05-04 16:36 -16.28165 -52.64084 38043 ft 454 kts 259°
2026-05-04 16:37 -16.29677 -52.73784 38052 ft 454 kts 259°
2026-05-04 16:38 -16.31685 -52.86710 38050 ft 455 kts 259°
2026-05-04 16:39 -16.34188 -53.02902 38048 ft 454 kts 259°
2026-05-04 16:40 -16.36181 -53.15850 38061 ft 453 kts 259°
2026-05-04 16:41 -16.38657 -53.32018 38073 ft 452 kts 259°
2026-05-04 16:43 -16.41131 -53.48254 38073 ft 453 kts 259°
2026-05-04 16:43 -16.42609 -53.57995 38068 ft 454 kts 259°
2026-05-04 16:45 -16.45564 -53.77560 38072 ft 455 kts 259°
2026-05-04 16:46 -16.48001 -53.93800 38038 ft 454 kts 259°
2026-05-04 16:47 -16.49941 -54.06788 38017 ft 454 kts 259°
2026-05-04 16:48 -16.51875 -54.19788 38007 ft 454 kts 259°
2026-05-04 16:49 -16.52213 -54.26378 38000 ft 460 kts 272°
2026-05-04 16:49 -16.50946 -54.32869 37614 ft 452 kts 282°
2026-05-04 16:50 -16.49255 -54.39239 35140 ft 468 kts 282°
2026-05-04 16:50 -16.47531 -54.45701 33838 ft 458 kts 282°
2026-05-04 16:51 -16.45824 -54.52088 32234 ft 457 kts 282°
2026-05-04 16:51 -16.44984 -54.55232 31399 ft 459 kts 282°
2026-05-04 16:51 -16.43243 -54.61743 30072 ft 475 kts 283°
2026-05-04 16:52 -16.41464 -54.68384 28975 ft 476 kts 283°
2026-05-04 16:52 -16.40576 -54.71694 28392 ft 472 kts 283°